Weather History for Plattsmouth, NE

Change the Weather History Date:

Sunday, March 17, 2013

  Actual Average (KOFF) Record (KOFF)
Temperature  
Mean Temperature 35 °F -  
Max Temperature 47 °F 47 °F 83 °F (2012)
Min Temperature 24 °F 27 °F 21 °F (2014)
Degree Days  
Heating Degree Days 30    
Moisture  
Dew Point 26 °F    
Average Humidity 72    
Maximum Humidity 91    
Minimum Humidity 50    
Precipitation  
Precipitation 0.00 in - - ()
Sea Level Pressure  
Sea Level Pressure 29.95 in    
Wind  
Wind Speed 10 mph (East)    
Max Wind Speed 18 mph    
Max Gust Speed 24 mph    
Visibility 10 miles    
Events      
Averages and records for this station are not official NWS values.
T = Trace of Precipitation, MM = Missing Value Source: NWS Daily Summary

Daily Weather History Graph

Daily Weather History Graph

Search for Another Location

Airport:

Trip Planner

Search our weather history database for the weather conditions in past years. The results will help you decide how hot, cold, wet, or windy it might be!

Date:

Astronomy

Mar. 17, 2013 Rise Set
Actual Time 7:31 AM CDT 7:32 PM CDT
Civil Twilight 7:04 AM CDT 8:00 PM CDT
Nautical Twilight 6:32 AM CDT 8:32 PM CDT
Astronomical Twilight 5:59 AM CDT 9:04 PM CDT
Moon 10:42 AM CDT (3/17) 12:44 AM CDT (3/17)
Length of Visible Light 12h 56m
Length of Day
12h 01m
Waxing Crescent, 31% of the Moon is Illuminated
Mar 17
Waxing Crescent
Mar 19
First Quarter
Mar 27
Full
Apr 2
Last Quarter
Apr 10
New

Hourly Weather History & Observations

Time (CDT) Temp. Windchill Dew Point Humidity Pressure Visibility Wind Dir Wind Speed Gust Speed Precip Events Conditions
12:15 AM 30.0 °F 21.7 °F 24.3 °F 79% 30.15 in 10.0 mi NNE 9.2 mph 16.1 mph N/A   Overcast
12:35 AM 29.8 °F 22.2 °F 23.9 °F 79% 30.14 in 10.0 mi NE 8.1 mph - N/A   Overcast
12:55 AM 29.7 °F 19.6 °F 23.7 °F 79% 30.13 in 10.0 mi NE 12.7 mph - N/A   Overcast
1:15 AM 29.3 °F 20.2 °F 23.4 °F 78% 30.12 in 10.0 mi NE 10.4 mph - N/A   Mostly Cloudy
1:35 AM 29.1 °F 19.4 °F 23.4 °F 79% 30.10 in 10.0 mi NE 11.5 mph - N/A   Scattered Clouds
1:55 AM 28.8 °F 17.9 °F 23.0 °F 79% 30.10 in 10.0 mi NE 13.8 mph 18.4 mph N/A   Clear
2:15 AM 28.4 °F 18.5 °F 23.0 °F 80% 30.09 in 10.0 mi NE 11.5 mph - N/A   Clear
2:35 AM 28.4 °F 20.4 °F 23.0 °F 80% 30.09 in 10.0 mi NE 8.1 mph - N/A   Clear
2:55 AM 28.2 °F 18.3 °F 22.6 °F 80% 30.10 in 10.0 mi NE 11.5 mph 17.3 mph N/A   Scattered Clouds
3:15 AM 27.9 °F 18.4 °F 22.8 °F 81% 30.09 in 10.0 mi NE 10.4 mph - N/A   Clear
3:35 AM 27.9 °F 17.8 °F 22.6 °F 81% 30.09 in 10.0 mi NE 11.5 mph - N/A   Mostly Cloudy
3:55 AM 27.5 °F 18.0 °F 22.3 °F 81% 30.07 in 10.0 mi ENE 10.4 mph - N/A   Mostly Cloudy
4:15 AM 27.1 °F 15.4 °F 22.1 °F 81% 30.06 in 10.0 mi NE 15.0 mph 18.4 mph N/A   Scattered Clouds
4:35 AM 26.8 °F 15.4 °F 21.4 °F 80% 30.05 in 10.0 mi NE 13.8 mph - N/A   Clear
4:55 AM 26.6 °F 15.7 °F 21.6 °F 81% 30.05 in 10.0 mi ENE 12.7 mph - N/A   Clear
5:15 AM 26.1 °F 17.6 °F 21.4 °F 82% 30.06 in 10.0 mi ENE 8.1 mph - N/A   Clear
5:35 AM 25.7 °F 18.0 °F 21.2 °F 83% 30.06 in 10.0 mi ENE 6.9 mph - N/A   Clear
5:55 AM 25.7 °F 17.1 °F 21.2 °F 83% 30.07 in 10.0 mi ENE 8.1 mph - N/A   Scattered Clouds
6:15 AM 25.5 °F 16.9 °F 21.2 °F 84% 30.07 in 10.0 mi ENE 8.1 mph - N/A   Overcast
6:35 AM 24.8 °F 15.3 °F 21.0 °F 86% 30.06 in 10.0 mi ENE 9.2 mph - N/A   Scattered Clouds
6:55 AM 24.8 °F 16.9 °F 21.2 °F 86% 30.06 in 10.0 mi ENE 6.9 mph - N/A   Clear
7:15 AM 24.8 °F 15.3 °F 21.2 °F 86% 30.06 in 10.0 mi East 9.2 mph - N/A   Clear
7:35 AM 24.8 °F 15.3 °F 21.4 °F 87% 30.06 in 10.0 mi East 9.2 mph - N/A   Clear
7:55 AM 24.8 °F 16.1 °F 21.2 °F 86% 30.06 in 10.0 mi East 8.1 mph - N/A   Clear
8:15 AM 25.5 °F 17.8 °F 21.2 °F 84% 30.08 in 10.0 mi ENE 6.9 mph - N/A   Scattered Clouds
8:35 AM 26.2 °F 17.1 °F 21.2 °F 81% 30.08 in 10.0 mi East 9.2 mph - N/A   Scattered Clouds
8:55 AM 27.1 °F 16.4 °F 21.7 °F 80% 30.07 in 10.0 mi East 12.7 mph - N/A   Scattered Clouds
9:15 AM 27.7 °F 17.1 °F 21.9 °F 79% 30.06 in 10.0 mi East 12.7 mph 20.7 mph N/A   Scattered Clouds
9:35 AM 28.6 °F 17.2 °F 21.7 °F 76% 30.07 in 10.0 mi East 15.0 mph - N/A   Scattered Clouds
9:55 AM 29.7 °F 20.1 °F 21.6 °F 72% 30.07 in 10.0 mi East 11.5 mph - N/A   Scattered Clouds
10:15 AM 30.2 °F 20.8 °F 21.7 °F 71% 30.06 in 10.0 mi ESE 11.5 mph - N/A   Scattered Clouds
10:35 AM 31.1 °F 21.9 °F 21.4 °F 67% 30.05 in 10.0 mi ESE 11.5 mph - N/A   Scattered Clouds
10:55 AM 32.0 °F 22.1 °F 21.2 °F 64% 30.04 in 10.0 mi East 13.8 mph - N/A   Clear
11:15 AM 32.9 °F 23.2 °F 21.4 °F 63% 30.03 in 10.0 mi East 13.8 mph - N/A   Clear
11:35 AM 33.1 °F 24.9 °F 21.6 °F 63% 30.01 in 10.0 mi East 10.4 mph 17.3 mph N/A   Clear
11:55 AM 34.9 °F 27.1 °F 22.1 °F 60% 30.00 in 10.0 mi ESE 10.4 mph 18.4 mph N/A   Clear
12:15 PM 36.3 °F 28.4 °F 22.6 °F 58% 29.99 in 10.0 mi SE 11.5 mph 16.1 mph N/A   Clear
12:35 PM 37.6 °F 31.0 °F 22.5 °F 54% 29.97 in 10.0 mi SE 9.2 mph 17.3 mph N/A   Clear
12:55 PM 39.9 °F 32.5 °F 23.7 °F 52% 29.95 in 10.0 mi SE 12.7 mph 19.6 mph N/A   Clear
1:15 PM 39.4 °F 31.1 °F 23.5 °F 53% 29.94 in 10.0 mi ESE 15.0 mph - N/A   Clear
1:35 PM 41.7 °F 33.7 °F 25.0 °F 52% 29.92 in 10.0 mi ESE 16.1 mph 21.9 mph N/A   Clear
1:55 PM 41.5 °F 36.4 °F 25.2 °F 52% 29.91 in 10.0 mi SE 8.1 mph 18.4 mph N/A   Clear
2:15 PM 42.1 °F 37.7 °F 25.2 °F 51% 29.89 in 10.0 mi ESE 6.9 mph - N/A   Clear
2:35 PM 44.1 °F 38.1 °F 26.2 °F 50% 29.89 in 10.0 mi SSE 11.5 mph - N/A   Clear
2:55 PM 44.1 °F 39.5 °F 27.0 °F 51% 29.88 in 10.0 mi SE 8.1 mph - N/A   Clear
3:15 PM 44.8 °F 39.9 °F 27.1 °F 50% 29.86 in 10.0 mi ESE 9.2 mph - N/A   Mostly Cloudy
3:35 PM 44.2 °F 40.3 °F 27.3 °F 51% 29.85 in 10.0 mi ESE 6.9 mph 16.1 mph N/A   Overcast
3:55 PM 44.8 °F 39.9 °F 28.2 °F 52% 29.84 in 10.0 mi SE 9.2 mph 16.1 mph N/A   Overcast
4:15 PM 45.1 °F 39.5 °F 28.6 °F 52% 29.82 in 10.0 mi ESE 11.5 mph - N/A   Overcast
4:35 PM 46.4 °F 40.4 °F 29.7 °F 52% 29.80 in 10.0 mi ESE 13.8 mph 17.3 mph N/A   Scattered Clouds
4:55 PM 46.6 °F - 30.2 °F 53% 29.79 in 10.0 mi ESE 12.7 mph 20.7 mph N/A   Clear
5:15 PM 46.4 °F 41.5 °F 30.4 °F 54% 29.78 in 10.0 mi SE 10.4 mph 19.6 mph N/A   Clear
5:35 PM 46.2 °F 39.3 °F 30.9 °F 55% 29.77 in 10.0 mi ESE 17.3 mph 21.9 mph N/A   Scattered Clouds
5:55 PM 45.5 °F 38.9 °F 31.1 °F 57% 29.75 in 10.0 mi SE 15.0 mph - N/A   Mostly Cloudy
6:15 PM 46.4 °F 40.7 °F 31.3 °F 56% 29.75 in 10.0 mi ESE 12.7 mph 18.4 mph N/A   Mostly Cloudy
6:35 PM 43.9 °F 36.8 °F 30.7 °F 60% 29.76 in 10.0 mi ESE 15.0 mph 20.7 mph N/A   Overcast
6:55 PM 43.0 °F 35.4 °F 30.7 °F 62% 29.76 in 10.0 mi SE 16.1 mph 19.6 mph N/A   Overcast
7:15 PM 41.9 °F 35.0 °F 30.4 °F 64% 29.76 in 10.0 mi SE 12.7 mph 18.4 mph N/A   Overcast
7:35 PM 41.4 °F 33.3 °F 30.2 °F 65% 29.76 in 10.0 mi SE 16.1 mph 19.6 mph N/A   Overcast
7:55 PM 40.5 °F 33.2 °F 30.7 °F 68% 29.77 in 10.0 mi SE 12.7 mph 18.4 mph N/A   Overcast
8:15 PM 39.4 °F 31.1 °F 30.7 °F 71% 29.77 in 10.0 mi ESE 15.0 mph 20.7 mph N/A   Overcast
8:35 PM 38.5 °F 28.9 °F 30.9 °F 74% 29.78 in 10.0 mi SE 18.4 mph 24.2 mph N/A   Overcast
8:55 PM 37.6 °F 30.0 °F 31.1 °F 77% 29.79 in 10.0 mi SE 11.5 mph 19.6 mph N/A   Overcast
9:15 PM 36.9 °F 30.1 °F 31.8 °F 82% 29.79 in 10.0 mi SE 9.2 mph - N/A   Overcast
9:35 PM 36.5 °F 30.3 °F 32.0 °F 84% 29.79 in 10.0 mi SE 8.1 mph - N/A   Overcast
9:55 PM 36.1 °F 31.4 °F 32.2 °F 86% 29.79 in 10.0 mi SE 5.8 mph - N/A   Overcast
10:15 PM 35.8 °F 31.9 °F 32.2 °F 87% 29.80 in 7.0 mi ESE 4.6 mph - N/A   Overcast
10:35 PM 35.8 °F - 32.5 °F 88% 29.81 in 7.0 mi Calm Calm - N/A   Overcast
10:55 PM 35.8 °F - 32.7 °F 89% 29.81 in 10.0 mi Calm Calm - N/A   Overcast
11:15 PM 35.6 °F - 32.4 °F 88% 29.80 in 7.0 mi Calm Calm - N/A   Overcast
11:35 PM 35.2 °F - 32.4 °F 89% 29.81 in 5.0 mi Calm Calm - N/A   Overcast
11:55 PM 34.9 °F 29.9 °F 32.4 °F 91% 29.79 in 4.0 mi ESE 5.8 mph - N/A   Overcast